DECAYED
Showing default

XJS D, 45250 (Decayed)

Orbit data source: Space-Track

XJS D, 45250 was a payload satellite owned by SAST (CN) in LEO that was launched on Wed, 19 Feb 2020 UTC via a CHANG ZHENG 2D launch vehicle from the Xichang Space Center, China (XSC). Payload-class satellites include a variety of spacecraft equipped with specific instruments for various scientific and technological missions. These include communications satellites like Starlink; space stations such as the ISS; scientific satellites like the Hubble; Earth observation satellites from companies like Planet Labs, Umbra, and HawkEye 360; GPS; miniature CubeSats for education and research; and military/defense satellites.

Not visible in the next 10 days
Identifier
45250, 2020-014B
Orbit
Decayed
Last TLE update
1 year ago
Origin
Manufacturer
SAST
Mission
Decayed Civil Technology
Bus & Motor
Unknown
Mass
~200 kg wet, ~200 kg dry
Launch date (UTC)
2020-02-19 (5 years ago)
Launch vehicle
CHANG ZHENG 2D
Launch site
Xichang Space Center, China (XSC)
Object type
Payload
Rocket body
Debris
Shape & HBR
Box + 2 Pan, Unknown HBR
Radar Cross Section
0.446 m², Large (>1 m²)

Expand to show TLE details & history

TLE from 1 year ago
0 XJS D
1 45250U 20014B   24156.12265476  .47187354  14195-5  59950-3 0  9999
2 45250  34.9979  65.9969 0002919 264.0659 236.7954 16.49520532241477
Epoch: 2024-06-04T02:56Z
TLE epoch observation values (Epoch: 2024-06-04T02:56:37.371Z)
Latitude
21.32673°
Longitude
-84.87711°
Altitude
140.152 km
Speed
7.826 km/s
True Right ascension
14h 09m 18s
True Declination
21° 11' 58"
Sunlit
Object was in full shadow at epoch
Visualization orbit readout
Visualization observer readout
Orbital elements
Apogee altitude
145.93 km
Perigee altitude
142.122 km
Semi-major axis
6,522.163 km
Eccentricity
0.00029
Inclination
34.9979°
RAAN
65.9969°
Arg. of periapsis
264.0659°
True anomaly
Unknown
Mean anomaly
236.7954°
Eccentric anomaly
Unknown
Mean motion
4.12055 °/min
Orbital period
87.37 mins
BSTAR
0.0005995
Loading maneuver chart data...
Loading SW <> Apogee altitude chart data...
Loading historical data...
Loading historical data...
Loading historical data...
Loading historical data...
Loading historical data...
Loading historical data...
Loading historical data...
Other satellites on launch #14 in the year 2020 (2020-02-19 UTC)

XJS D Visibility

Observer location: undefined°, undefined°

This satellite is decayed
Span
Click to sort rows by Start time (UTC) header in descending order
Start Az.
Max El. time (UTC)
Max El. Az.
Max El.
End time (UTC)
End Az.
|